Location: Fours
(44.3167°N, 6.7000°E)
Time: 08:59:13
(UTC+00:00)

CZ-2D R/B - Pass Details

Date: 30 November 2020
Orbit: 520 x 538 km, 97.4° (Epoch: 25 January)

Event Time Altitude Azimuth Distance (km) Brightness Sun altitude
Rises 17:59:04 0° 172° (S) 2,643 6.8 -21.5°
Reaches altitude 10° 18:01:09 10° 175° (S) 1,762 5.9 -21.8°
Maximum altitude 18:04:56 68° 258° (WSW) 572 3.5 -22.5°
Drops below altitude 10° 18:08:48 10° 343° (NNW) 1,789 6.0 -23.2°
Sets 18:10:56 0° 346° (NNW) 2,687 6.9 -23.6°
